Location: Bjelajci
(45.0103°N, 16.1758°E)
Time: 03:34:08
(UTC+00:00)

SL-16 R/B - Pass Details

Date: 14 July 2020
Orbit: 842 x 846 km, 71.0° (Epoch: 10 August)

Event Time Altitude Azimuth Distance (km) Brightness Sun altitude
Rises 02:03:41 0° 337° (NNW) 3,416 5.7 -11.5°
Reaches altitude 10° 02:06:13 10° 343° (NNW) 2,478 5.0 -11.2°
Maximum altitude 02:11:45 51° 59° (ENE) 1,063 3.2 -10.5°
Drops below altitude 10° 02:17:14 10° 134° (SE) 2,462 4.6 -9.8°
Sets 02:19:45 0° 140° (SE) 3,393 5.3 -9.5°
